Weather History for Chicago Executive, IL

Change the Weather History Date:

Monday, March 18, 2013

  Actual Average Record
Temperature  
Mean Temperature 28 °F 38 °F  
Max Temperature 34 °F 47 °F 82 °F (2012)
Min Temperature 21 °F 30 °F 18 °F (2001)
Degree Days  
Heating Degree Days 37 27  
Month to date heating degree days 616 532  
Since 1 July heating degree days 5123 5270  
Cooling Degree Days 0 0  
Month to date cooling degree days 0 0  
Year to date cooling degree days 0 0  
Moisture  
Dew Point 26 °F    
Average Humidity 84    
Maximum Humidity 93    
Minimum Humidity 64    
Precipitation  
Precipitation 0.07 in 0.07 in 0.07 in (2004)
Month to date precipitation 0.82 1.17  
Year to date precipitation 5.78 3.75  
Sea Level Pressure  
Sea Level Pressure 29.75 in    
Wind  
Wind Speed 12 mph (SSE)    
Max Wind Speed 28 mph    
Max Gust Speed 37 mph    
Visibility 6 miles    
Events Snow    
T = Trace of Precipitation, MM = Missing Value Source: NWS Daily Summary

Daily Weather History Graph

Daily Weather History Graph

Search for Another Location

Airport:

Trip Planner

Search our weather history database for the weather conditions in past years. The results will help you decide how hot, cold, wet, or windy it might be!

Date:

Astronomy

Mar. 18, 2013 Rise Set
Actual Time 6:57 AM CDT 7:01 PM CDT
Civil Twilight 6:30 AM CDT 7:29 PM CDT
Nautical Twilight 5:57 AM CDT 8:02 PM CDT
Astronomical Twilight 5:24 AM CDT 8:35 PM CDT
Moon 10:51 AM CDT (3/18) 1:06 AM CDT (3/18)
Length of Visible Light 12h 59m
Length of Day
12h 03m
Waxing Crescent, 41% of the Moon is Illuminated
Mar 18
Waxing Crescent
Mar 19
First Quarter
Mar 27
Full
Apr 2
Last Quarter
Apr 10
New

Hourly Weather History & Observations

Time (CDT) Temp. Windchill Dew Point Humidity Pressure Visibility Wind Dir Wind Speed Gust Speed Precip Events Conditions
12:52 AM 30.0 °F 20.0 °F 21.9 °F 72% 30.03 in 10.0 mi ESE 12.7 mph - N/A   Scattered Clouds
12:59 AM 30.2 °F 21.3 °F 21.2 °F 69% 30.00 in 10.0 mi ESE 10.4 mph 18.4 mph N/A   Mostly Cloudy
1:26 AM 30.2 °F 20.8 °F 21.2 °F 69% 29.98 in 10.0 mi ESE 11.5 mph - N/A   Scattered Clouds
1:52 AM 28.9 °F 19.2 °F 21.9 °F 75% 29.99 in 10.0 mi ESE 11.5 mph - N/A   Clear
2:22 AM 28.4 °F 21.2 °F 21.2 °F 74% 29.95 in 10.0 mi East 6.9 mph 18.4 mph N/A   Mostly Cloudy
2:52 AM 28.9 °F 20.4 °F 23.0 °F 78% 29.97 in 10.0 mi East 9.2 mph - N/A   Overcast
3:37 AM 28.4 °F 19.7 °F 23.0 °F 80% 29.90 in 10.0 mi East 9.2 mph - N/A   Mostly Cloudy
3:52 AM 28.9 °F 21.9 °F 23.0 °F 78% 29.92 in 10.0 mi East 6.9 mph - N/A   Mostly Cloudy
4:52 AM 30.0 °F 20.5 °F 23.0 °F 75% 29.87 in 10.0 mi East 11.5 mph 18.4 mph N/A   Overcast
5:52 AM 30.0 °F 21.7 °F 24.1 °F 79% 29.86 in 6.0 mi East 9.2 mph - 0.00 in Snow Light Snow
6:38 AM 30.2 °F 21.9 °F 24.8 °F 80% 29.81 in 2.5 mi East 9.2 mph - 0.00 in Snow Light Snow
6:52 AM 30.0 °F 21.7 °F 26.1 °F 85% 29.83 in 4.0 mi ENE 9.2 mph - 0.00 in Snow Light Snow
7:24 AM 30.2 °F 23.4 °F 26.6 °F 86% 29.79 in 4.0 mi East 6.9 mph - 0.00 in Snow Light Snow
7:47 AM 30.2 °F 23.4 °F 26.6 °F 86% 29.78 in 5.0 mi East 6.9 mph - 0.00 in   Overcast
7:52 AM 30.0 °F 22.4 °F 26.1 °F 85% 29.80 in 4.0 mi East 8.1 mph - 0.00 in   Overcast
7:59 AM 30.2 °F 23.4 °F 26.6 °F 86% 29.77 in 2.0 mi East 6.9 mph - 0.00 in Snow Light Snow
8:52 AM 30.0 °F 23.2 °F 27.0 °F 88% 29.78 in 3.0 mi ENE 6.9 mph - 0.00 in Snow Light Snow
9:08 AM 30.2 °F 23.4 °F 28.4 °F 93% 29.74 in 3.0 mi East 6.9 mph - 0.00 in Snow Light Snow
9:37 AM 30.2 °F 23.4 °F 28.4 °F 93% 29.73 in 1.8 mi ENE 6.9 mph - 0.00 in Snow Light Snow
9:45 AM 30.2 °F 24.3 °F 28.4 °F 93% 29.73 in 2.0 mi East 5.8 mph - 0.00 in Snow Light Snow
9:52 AM 30.0 °F 23.2 °F 28.0 °F 92% 29.74 in 1.5 mi East 6.9 mph - 0.00 in Snow Light Snow
10:52 AM 30.9 °F 23.5 °F 28.9 °F 92% 29.72 in 2.0 mi East 8.1 mph - 0.00 in   Overcast
11:52 AM 30.9 °F 26.2 °F 28.9 °F 92% 29.69 in 2.0 mi SE 4.6 mph - 0.01 in   Overcast
11:59 AM 30.2 °F 25.4 °F 28.4 °F 93% 29.68 in 4.0 mi ESE 4.6 mph - N/A   Overcast
12:52 PM 32.0 °F 27.5 °F 30.0 °F 92% 29.67 in 3.0 mi South 4.6 mph - 0.02 in   Overcast
1:04 PM 32.0 °F 28.7 °F 30.2 °F 93% 29.64 in 2.0 mi South 3.5 mph - 0.00 in Snow Light Snow
1:32 PM 33.8 °F 28.6 °F 30.2 °F 87% 29.63 in 2.0 mi South 5.8 mph - 0.02 in   Overcast
1:52 PM 33.1 °F 26.9 °F 30.9 °F 92% 29.65 in 2.0 mi SSW 6.9 mph - 0.02 in   Overcast
1:58 PM 33.8 °F 27.7 °F 30.2 °F 87% 29.63 in 4.0 mi SW 6.9 mph - N/A   Overcast
2:52 PM 33.1 °F 27.7 °F 30.9 °F 92% 29.64 in 4.0 mi SW 5.8 mph - 0.01 in Snow Light Snow
3:50 PM 33.8 °F 25.3 °F 30.2 °F 87% 29.61 in 7.0 mi West 11.5 mph - 0.00 in   Overcast
3:52 PM 34.0 °F 25.5 °F 30.9 °F 89% 29.63 in 7.0 mi WSW 11.5 mph - 0.00 in   Overcast
3:59 PM 33.8 °F 25.8 °F 30.2 °F 87% 29.62 in 7.0 mi West 10.4 mph - N/A   Overcast
4:13 PM 33.8 °F 25.8 °F 30.2 °F 87% 29.62 in 2.0 mi West 10.4 mph - 0.00 in Snow Light Snow
4:33 PM 33.8 °F 27.0 °F 30.2 °F 87% 29.62 in 4.0 mi WSW 8.1 mph - 0.01 in Snow Light Snow
4:52 PM 34.0 °F 26.0 °F 30.9 °F 89% 29.64 in 3.0 mi WSW 10.4 mph - 0.01 in Snow Light Snow
5:19 PM 33.8 °F 25.8 °F 30.2 °F 87% 29.62 in 7.0 mi West 10.4 mph - 0.00 in   Overcast
5:52 PM 34.0 °F 26.0 °F 30.0 °F 85% 29.65 in 9.0 mi West 10.4 mph 19.6 mph 0.00 in   Overcast
6:41 PM 33.8 °F 22.8 °F 30.2 °F 87% 29.65 in 2.5 mi West 18.4 mph 29.9 mph N/A   Overcast
6:52 PM 32.0 °F 21.6 °F 30.0 °F 92% 29.68 in 2.5 mi WSW 15.0 mph 27.6 mph N/A   Overcast
6:56 PM 32.0 °F 20.8 °F 30.2 °F 93% 29.66 in 3.0 mi WSW 17.3 mph 25.3 mph N/A   Overcast
7:14 PM 30.2 °F 17.1 °F 28.4 °F 93% 29.67 in 7.0 mi West 21.9 mph 33.4 mph N/A   Overcast
7:49 PM 28.4 °F 14.7 °F 24.8 °F 86% 29.70 in 8.0 mi West 21.9 mph 32.2 mph N/A   Overcast
7:52 PM 28.9 °F 16.1 °F 24.1 °F 82% 29.73 in 8.0 mi West 19.6 mph 32.2 mph N/A   Overcast
8:52 PM 26.1 °F 11.6 °F 18.0 °F 71% 29.76 in 10.0 mi West 21.9 mph 29.9 mph N/A   Overcast
9:52 PM 24.1 °F 11.0 °F 15.1 °F 69% 29.78 in 10.0 mi West 16.1 mph 26.5 mph N/A   Overcast
10:05 PM 24.8 °F 11.9 °F 14.0 °F 64% 29.76 in 10.0 mi West 16.1 mph 33.4 mph N/A   Overcast
10:52 PM 23.0 °F 8.0 °F 12.9 °F 65% 29.79 in 10.0 mi West 20.7 mph 29.9 mph N/A   Overcast